This is the latest recevied weather packets stored in our database for station/object PY3MO-13. If no packets are shown the sender has not sent any weather packets the latest 10 day(s).
| Time | Temp. | Humidity | Pressure | Rain* | Wind** | Luminosity | Snow |
|---|---|---|---|---|---|---|---|
| 1777580571 | 21.11° C | 48% | 1017 hPa | 0 mm | - | - | - |
| 1777580273 | 21.67° C | 48% | 1016.9 hPa | 0 mm | - | - | - |
| 1777579972 | 21.67° C | 47% | 1017.1 hPa | 0 mm | - | - | - |
| 1777579671 | 21.67° C | 47% | 1017.2 hPa | 0 mm | - | - | - |
| 1777579373 | 22.22° C | 47% | 1017 hPa | 0 mm | - | - | - |
| 1777579072 | 22.22° C | 47% | 1017 hPa | 0 mm | - | - | - |
| 1777578772 | 22.78° C | 43% | 1017.1 hPa | 0 mm | - | - | - |
| 1777578473 | 22.78° C | 43% | 1017.1 hPa | 0 mm | - | - | - |
| 1777578172 | 23.33° C | 43% | 1017.2 hPa | 0 mm | - | - | - |
| 1777577872 | 23.33° C | 43% | 1017.1 hPa | 0 mm | - | - | - |
| 1777577571 | 23.89° C | 43% | 1017.3 hPa | 0 mm | - | - | - |
| 1777577273 | 23.89° C | 43% | 1017.1 hPa | 0 mm | - | - | - |
| 1777576972 | 24.44° C | 43% | 1017 hPa | 0 mm | - | - | - |
| 1777576672 | 24.44° C | 43% | 1017.3 hPa | 0 mm | - | - | - |
| 1777576373 | 24.44° C | 43% | 1017.3 hPa | 0 mm | - | - | - |
| 1777576072 | 24.44° C | 42% | 1017.2 hPa | 0 mm | - | - | - |
| 1777575772 | 24.44° C | 42% | 1017.2 hPa | 0 mm | - | - | - |
| 1777575473 | 25° C | 42% | 1017.1 hPa | 0 mm | - | - | - |
| 1777575173 | 24.44° C | 42% | 1016.9 hPa | 0 mm | - | - | - |
| 1777574872 | 25° C | 42% | 1016.9 hPa | 0 mm | - | - | - |
| 1777574571 | 24.44° C | 41% | 1016.9 hPa | 0 mm | - | - | - |
| 1777574273 | 25° C | 41% | 1016.8 hPa | 0 mm | - | - | - |
| 1777573972 | 25° C | 40% | 1016.7 hPa | 0 mm | - | - | - |
| 1777573672 | 25° C | 40% | 1016.8 hPa | 0 mm | - | - | - |
| 1777573372 | 25° C | 40% | 1017 hPa | 0 mm | - | - | - |
* Rain latest hour (hover to see other rain measurements)
** Current wind speed in m/s (hover to see current wind gust speed)